CZ-6A DEB, 60986

Orbit data source: Space-Track

CZ-6A DEB, 60986 is space debris in LEO originally from a launch on Tue, 06 Aug 2024 UTC launched from the Taiyaun Space Center, China (TSC). Debris objects in space refer to the collection of defunct objects orbiting the Earth. Examples of debris include non-operational satellites, rocket bodies, and fragments generated from explosions, collisions, or faulty payload assembly.

Loading next visibility...
Identifier
60986, 2024-140MM
Orbit
LEO
Country
Flag of CNCN / PRC
Related business
Manufacturer
SAST
Mission
Spacecraft
Bus & Motor
Unknown
Mass
Unknown
Launch date (UTC)
2024-08-06 (2 years ago)
Launch vehicle
Unknown
Launch site
Taiyaun Space Center, China (TSC)
Object type
Payload
Rocket body
Debris
Shape & HBR
Unknown shape, 0.1 m
Radar Cross Section
Medium (>0.1 m² and <1 m²)

Expand to show TLE details & history
Last TLE update: 13 hours ago

TLE from 13 hours ago
0 CZ-6A DEB
1 60986U 24140MM  26171.41371297  .00000402  00000-0  23630-3 0  9994
2 60986  89.3813 306.0267 0137007 260.1228  98.4462 14.01958748 93468
Epoch: 2026-06-20T09:55Z
TLE epoch observation values (Epoch: 2026-06-20T09:55:44.800Z)
Latitude
-0.00007°
Longitude
-111.53865°
Altitude
906.002 km
Speed
7.391 km/s
True Right ascension
20h 24m 06s
True Declination
0° 00' 00"
Sunlit
Object was in full shadow at epoch
Visualization orbit readout
Latitude
Unknown
Longitude
Unknown
Altitude
Unknown
Speed
Unknown
Apparent Right ascension
Unknown
Apparent Declination
Unknown
Sunlit
N/A
Visualization observer readout
Local Sidereal Time
10:18:55
Azimuth
Unknown
Elevation
Unknown
Doppler factor
Unknown
Orbital elements
Apogee altitude
983.491 km
Perigee altitude
784.499 km
Semi-major axis
7,262.132 km
Eccentricity
0.0137
Inclination
89.3813°
RAAN
306.0267°
Arg. of periapsis
260.1228°
True anomaly
99.99507°
Mean anomaly
98.4462°
Eccentric anomaly
99.22105°
Mean motion
3.50709 °/min
Orbital period
102.65 mins
BSTAR
0.0002363
Loading maneuver chart data...
Computing Atmospheric mass density...
Loading historical data...
Loading historical data...
Loading historical data...
Loading historical data...
Loading historical data...
Loading historical data...
Loading historical data...

Documentation

Showing up to 5 results
|